Data No,UTC Date,UTC Time,Latitude,Longitude,Course(deg),Temp(degC),Sal(psu)
513,2023/10/16,8:32,42-36.99N,141-37.13E,211,15.76,32.9226
514,2023/10/16,8:33,42-36.75N,141-36.94E,206,15.814,32.9721
515,2023/10/16,8:34,42-36.50N,141-36.87E,184,15.944,32.9898
516,2023/10/16,8:35,42-36.23N,141-36.96E,156,16.034,33.0369
517,2023/10/16,8:36,42-35.99N,141-37.18E,144,16.095,33.0373
518,2023/10/16,8:37,42-35.75N,141-37.41E,144,16.128,33.052
519,2023/10/16,8:38,42-35.50N,141-37.66E,144,16.169,33.0902
520,2023/10/16,8:39,42-35.25N,141-37.90E,144,16.216,33.1971
521,2023/10/16,8:40,42-34.99N,141-38.15E,144,16.258,33.2717
522,2023/10/16,8:41,42-34.73N,141-38.39E,145,16.28,33.3054
523,2023/10/16,8:42,42-34.47N,141-38.64E,144,16.301,33.349
524,2023/10/16,8:43,42-34.20N,141-38.90E,144,16.296,33.3911
525,2023/10/16,8:44,42-33.93N,141-39.16E,144,16.226,33.429
526,2023/10/16,8:45,42-33.66N,141-39.42E,144,16.203,33.4467
527,2023/10/16,8:46,42-33.40N,141-39.67E,144,16.215,33.4545
528,2023/10/16,8:47,42-33.13N,141-39.94E,144,16.255,33.4533
529,2023/10/16,8:48,42-32.85N,141-40.20E,144,16.274,33.4572
530,2023/10/16,8:49,42-32.58N,141-40.46E,144,16.351,33.4564
531,2023/10/16,8:50,42-32.30N,141-40.73E,144,16.407,33.4548
532,2023/10/16,8:51,42-32.03N,141-40.99E,144,16.426,33.4563
533,2023/10/16,8:52,42-31.74N,141-41.26E,145,16.424,33.4577
534,2023/10/16,8:53,42-31.46N,141-41.53E,144,16.431,33.461
535,2023/10/16,8:54,42-31.18N,141-41.80E,144,16.45,33.466
536,2023/10/16,8:55,42-30.89N,141-42.09E,144,16.451,33.4665
537,2023/10/16,8:56,42-30.61N,141-42.36E,144,16.459,33.463
538,2023/10/16,8:57,42-30.33N,141-42.62E,144,16.488,33.4558
539,2023/10/16,8:58,42-30.04N,141-42.90E,144,16.53,33.4426
540,2023/10/16,8:59,42-29.76N,141-43.17E,145,16.539,33.4324
541,2023/10/16,9:00,42-29.48N,141-43.47E,138,16.552,33.4172
542,2023/10/16,9:01,42-29.22N,141-43.80E,135,16.571,33.406
543,2023/10/16,9:02,42-29.00N,141-44.15E,127,16.623,33.4037
544,2023/10/16,9:03,42-28.79N,141-44.54E,125,16.662,33.4042
545,2023/10/16,9:04,42-28.59N,141-44.94E,125,16.683,33.4028
546,2023/10/16,9:05,42-28.38N,141-45.33E,124,16.69,33.3977
547,2023/10/16,9:06,42-28.19N,141-45.70E,125,16.704,33.3924
548,2023/10/16,9:07,42-27.98N,141-46.09E,125,16.698,33.3863
549,2023/10/16,9:08,42-27.77N,141-46.49E,126,16.69,33.3827
550,2023/10/16,9:09,42-27.56N,141-46.86E,126,16.678,33.3829
551,2023/10/16,9:10,42-27.35N,141-47.25E,126,16.655,33.3839
552,2023/10/16,9:11,42-27.14N,141-47.63E,126,16.621,33.3867
553,2023/10/16,9:12,42-26.93N,141-48.02E,125,16.557,33.3889
554,2023/10/16,9:13,42-26.72N,141-48.41E,126,16.474,33.394
555,2023/10/16,9:14,42-26.52N,141-48.78E,126,16.413,33.3973
556,2023/10/16,9:15,42-26.32N,141-49.17E,126,16.409,33.403
557,2023/10/16,9:16,42-26.10N,141-49.56E,126,16.436,33.405
558,2023/10/16,9:17,42-25.90N,141-49.92E,126,16.484,33.4131
559,2023/10/16,9:18,42-25.69N,141-50.31E,126,16.532,33.4136
560,2023/10/16,9:19,42-25.48N,141-50.69E,126,16.571,33.4121
561,2023/10/16,9:20,42-25.27N,141-51.08E,126,16.7,33.4105
562,2023/10/16,9:21,42-25.06N,141-51.46E,126,16.794,33.4081
563,2023/10/16,9:22,42-24.86N,141-51.83E,126,16.817,33.41
564,2023/10/16,9:23,42-24.65N,141-52.21E,126,16.811,33.4094
565,2023/10/16,9:24,42-24.44N,141-52.60E,126,16.846,33.4005
566,2023/10/16,9:25,42-24.24N,141-52.97E,124,16.898,33.3919
567,2023/10/16,9:26,42-24.05N,141-53.36E,124,16.96,33.3884
568,2023/10/16,9:27,42-23.85N,141-53.74E,124,16.985,33.3856
569,2023/10/16,9:28,42-23.65N,141-54.14E,123,16.983,33.384
570,2023/10/16,9:29,42-23.46N,141-54.53E,123,16.995,33.3846
571,2023/10/16,9:30,42-23.26N,141-54.95E,122,17.01,33.386
572,2023/10/16,9:31,42-23.08N,141-55.32E,123,17.02,33.3848
573,2023/10/16,9:32,42-22.89N,141-55.72E,123,17.038,33.3834
574,2023/10/16,9:33,42-22.70N,141-56.12E,122,17.053,33.3826
575,2023/10/16,9:34,42-22.51N,141-56.51E,122,17.056,33.3812
576,2023/10/16,9:35,42-22.32N,141-56.91E,122,17.058,33.3816
577,2023/10/16,9:36,42-22.13N,141-57.31E,123,17.055,33.3803
578,2023/10/16,9:37,42-21.95N,141-57.69E,123,17.043,33.3763
579,2023/10/16,9:38,42-21.75N,141-58.11E,122,17.03,33.3716
580,2023/10/16,9:39,42-21.56N,141-58.51E,122,17.004,33.3653
581,2023/10/16,9:40,42-21.37N,141-58.89E,123,16.92,33.3537
582,2023/10/16,9:41,42-21.19N,141-59.27E,122,16.799,33.3534
583,2023/10/16,9:42,42-21.00N,141-59.67E,122,16.728,33.3069
584,2023/10/16,9:43,42-20.80N,142-00.08E,122,16.689,33.245
585,2023/10/16,9:44,42-20.63N,142-00.45E,122,16.707,33.183
586,2023/10/16,9:45,42-20.43N,142-00.87E,122,16.723,33.1349
587,2023/10/16,9:46,42-20.24N,142-01.27E,123,16.719,33.1153
588,2023/10/16,9:47,42-20.05N,142-01.66E,122,16.705,33.116
589,2023/10/16,9:48,42-19.86N,142-02.07E,123,16.682,33.122
590,2023/10/16,9:49,42-19.67N,142-02.48E,122,16.66,33.1283
591,2023/10/16,9:50,42-19.49N,142-02.86E,122,16.623,33.1379
592,2023/10/16,9:51,42-19.30N,142-03.25E,122,16.588,33.1489
593,2023/10/16,9:52,42-19.12N,142-03.64E,122,16.583,33.1385
594,2023/10/16,9:53,42-18.91N,142-04.10E,121,16.607,33.1173
595,2023/10/16,9:54,42-18.73N,142-04.50E,122,16.657,33.094
596,2023/10/16,9:55,42-18.54N,142-04.90E,121,16.691,33.0765
597,2023/10/16,9:56,42-18.35N,142-05.31E,122,16.684,33.07
598,2023/10/16,9:57,42-18.17N,142-05.71E,121,16.684,33.0691
599,2023/10/16,9:58,42-17.98N,142-06.11E,121,16.671,33.0704
600,2023/10/16,9:59,42-17.81N,142-06.51E,121,16.645,33.0754
601,2023/10/16,10:00,42-17.63N,142-06.91E,120,16.597,33.0843
602,2023/10/16,10:01,42-17.45N,142-07.32E,120,16.592,33.0873
603,2023/10/16,10:02,42-17.27N,142-07.71E,120,16.593,33.0846
604,2023/10/16,10:03,42-17.08N,142-08.13E,120,16.598,33.0835
605,2023/10/16,10:04,42-16.91N,142-08.52E,121,16.601,33.0854
606,2023/10/16,10:05,42-16.73N,142-08.92E,120,16.603,33.0875
607,2023/10/16,10:06,42-16.56N,142-09.28E,121,16.601,33.0885
608,2023/10/16,10:07,42-16.36N,142-09.72E,120,16.609,33.0886
609,2023/10/16,10:08,42-16.18N,142-10.13E,120,16.627,33.0902
610,2023/10/16,10:09,42-16.00N,142-10.53E,120,16.636,33.0959
611,2023/10/16,10:10,42-15.84N,142-10.87E,121,16.641,33.1015
612,2023/10/16,10:11,42-15.62N,142-11.36E,121,16.643,33.1084
613,2023/10/16,10:12,42-15.46N,142-11.73E,120,16.663,33.114
614,2023/10/16,10:13,42-15.28N,142-12.15E,120,16.689,33.1169
615,2023/10/16,10:14,42-15.10N,142-12.54E,121,16.706,33.1264
616,2023/10/16,10:15,42-14.91N,142-12.94E,121,16.727,33.1312
617,2023/10/16,10:16,42-14.72N,142-13.35E,121,16.75,33.1402
618,2023/10/16,10:17,42-14.55N,142-13.74E,121,16.771,33.1488
619,2023/10/16,10:18,42-14.36N,142-14.15E,121,16.811,33.1535
620,2023/10/16,10:19,42-14.18N,142-14.56E,121,16.808,33.1631
621,2023/10/16,10:20,42-14.00N,142-14.95E,121,16.766,33.1688
622,2023/10/16,10:21,42-13.81N,142-15.36E,121,16.745,33.1629
623,2023/10/16,10:22,42-13.63N,142-15.76E,121,16.745,33.1535
624,2023/10/16,10:23,42-13.44N,142-16.17E,121,16.746,33.1487
625,2023/10/16,10:24,42-13.26N,142-16.58E,121,16.747,33.1479
626,2023/10/16,10:25,42-13.07N,142-16.98E,121,16.742,33.1505
627,2023/10/16,10:26,42-12.89N,142-17.39E,121,16.749,33.1546
628,2023/10/16,10:27,42-12.70N,142-17.81E,121,16.755,33.1585
629,2023/10/16,10:28,42-12.52N,142-18.19E,121,16.764,33.1672
630,2023/10/16,10:29,42-12.35N,142-18.56E,121,16.771,33.1736
631,2023/10/16,10:30,42-12.17N,142-18.97E,121,16.78,33.1809
632,2023/10/16,10:31,42-11.98N,142-19.38E,121,16.791,33.1855
633,2023/10/16,10:32,42-11.79N,142-19.80E,121,16.8,33.1938
634,2023/10/16,10:33,42-11.61N,142-20.20E,121,16.804,33.1993
635,2023/10/16,10:34,42-11.42N,142-20.61E,120,16.803,33.2031
636,2023/10/16,10:35,42-11.24N,142-21.02E,121,16.805,33.2071
637,2023/10/16,10:36,42-11.04N,142-21.44E,121,16.797,33.2115
638,2023/10/16,10:37,42-10.85N,142-21.86E,121,16.778,33.2125
639,2023/10/16,10:38,42-10.66N,142-22.26E,122,16.75,33.2106
640,2023/10/16,10:39,42-10.47N,142-22.66E,121,16.731,33.2078
641,2023/10/16,10:40,42-10.28N,142-23.07E,121,16.725,33.2057
642,2023/10/16,10:41,42-10.09N,142-23.49E,122,16.73,33.2052
643,2023/10/16,10:42,42-09.90N,142-23.89E,122,16.744,33.2062
644,2023/10/16,10:43,42-09.70N,142-24.33E,122,16.766,33.2096
645,2023/10/16,10:44,42-09.52N,142-24.72E,122,16.789,33.2155
646,2023/10/16,10:45,42-09.32N,142-25.13E,122,16.803,33.2236
647,2023/10/16,10:46,42-09.12N,142-25.54E,122,16.82,33.2334
648,2023/10/16,10:47,42-08.93N,142-25.95E,122,16.823,33.2426
649,2023/10/16,10:48,42-08.73N,142-26.37E,122,16.826,33.2492
650,2023/10/16,10:49,42-08.53N,142-26.82E,121,16.827,33.2528
651,2023/10/16,10:50,42-08.34N,142-27.24E,121,16.838,33.2526
652,2023/10/16,10:51,42-08.16N,142-27.62E,121,16.848,33.2539
653,2023/10/16,10:52,42-07.97N,142-28.06E,121,16.838,33.2555
654,2023/10/16,10:53,42-07.79N,142-28.42E,122,16.84,33.2561
655,2023/10/16,10:54,42-07.60N,142-28.83E,122,16.851,33.2527
656,2023/10/16,10:55,42-07.41N,142-29.25E,121,16.87,33.2506
657,2023/10/16,10:56,42-07.22N,142-29.68E,120,16.831,33.2513
658,2023/10/16,10:57,42-07.02N,142-30.11E,121,16.754,33.2435
659,2023/10/16,10:58,42-06.83N,142-30.53E,122,16.726,33.216
660,2023/10/16,10:59,42-06.65N,142-30.92E,122,16.706,33.1955
661,2023/10/16,11:00,42-06.45N,142-31.34E,122,16.668,33.1792
662,2023/10/16,11:01,42-06.25N,142-31.76E,122,16.622,33.1675
663,2023/10/16,11:02,42-06.06N,142-32.16E,122,16.563,33.158
664,2023/10/16,11:03,42-05.86N,142-32.59E,122,16.544,33.15
665,2023/10/16,11:04,42-05.67N,142-32.99E,122,16.565,33.1536
666,2023/10/16,11:05,42-05.48N,142-33.40E,122,16.634,33.1669
667,2023/10/16,11:06,42-05.28N,142-33.82E,122,16.759,33.1842
668,2023/10/16,11:07,42-05.09N,142-34.23E,121,16.945,33.2133
669,2023/10/16,11:08,42-04.90N,142-34.63E,122,17.021,33.277
670,2023/10/16,11:09,42-04.70N,142-35.03E,123,17.056,33.3201
671,2023/10/16,11:10,42-04.50N,142-35.45E,123,17.065,33.3474
672,2023/10/16,11:11,42-04.30N,142-35.86E,123,17.058,33.3718
673,2023/10/16,11:12,42-04.10N,142-36.27E,122,17.02,33.383
674,2023/10/16,11:13,42-03.91N,142-36.68E,122,16.914,33.4044
675,2023/10/16,11:14,42-03.71N,142-37.09E,122,16.987,33.3997
676,2023/10/16,11:15,42-03.52N,142-37.48E,122,17.023,33.394
677,2023/10/16,11:16,42-03.33N,142-37.88E,122,17.052,33.3744
678,2023/10/16,11:17,42-03.14N,142-38.27E,121,17.054,33.3585
679,2023/10/16,11:18,42-02.95N,142-38.67E,121,17.067,33.3523
680,2023/10/16,11:19,42-02.75N,142-39.10E,122,17.04,33.3638
681,2023/10/16,11:20,42-02.57N,142-39.47E,121,17.039,33.357
682,2023/10/16,11:21,42-02.38N,142-39.89E,121,17.037,33.3506
683,2023/10/16,11:22,42-02.19N,142-40.30E,122,17.033,33.346
684,2023/10/16,11:23,42-02.00N,142-40.69E,122,17.028,33.3472
685,2023/10/16,11:24,42-01.82N,142-41.09E,121,17.002,33.3559
686,2023/10/16,11:25,42-01.63N,142-41.50E,121,16.968,33.3661
687,2023/10/16,11:26,42-01.45N,142-41.91E,121,16.968,33.3781
688,2023/10/16,11:27,42-01.27N,142-42.29E,122,16.928,33.3875
689,2023/10/16,11:28,42-01.09N,142-42.69E,121,16.877,33.3841
690,2023/10/16,11:29,42-00.91N,142-43.09E,121,16.852,33.3727
691,2023/10/16,11:30,42-00.74N,142-43.48E,120,16.86,33.3765
692,2023/10/16,11:31,42-00.55N,142-43.89E,120,16.873,33.3827
693,2023/10/16,11:32,42-00.37N,142-44.28E,121,16.908,33.3863
694,2023/10/16,11:33,42-00.20N,142-44.68E,120,16.946,33.3851
695,2023/10/16,11:34,42-00.02N,142-45.09E,120,16.983,33.3794
696,2023/10/16,11:35,41-59.84N,142-45.49E,120,16.999,33.3726
697,2023/10/16,11:36,41-59.67N,142-45.88E,120,16.985,33.3597
698,2023/10/16,11:37,41-59.50N,142-46.27E,121,16.976,33.3482
699,2023/10/16,11:38,41-59.32N,142-46.66E,120,16.961,33.3353
700,2023/10/16,11:39,41-59.14N,142-47.06E,120,16.975,33.324
701,2023/10/16,11:40,41-58.98N,142-47.45E,120,17.013,33.3122
702,2023/10/16,11:41,41-58.80N,142-47.85E,120,17.101,33.3103
703,2023/10/16,11:42,41-58.62N,142-48.23E,121,17.22,33.3211
704,2023/10/16,11:43,41-58.45N,142-48.63E,121,17.265,33.344
705,2023/10/16,11:44,41-58.26N,142-49.02E,121,17.226,33.3647
706,2023/10/16,11:45,41-58.08N,142-49.43E,120,17.002,33.3628
707,2023/10/16,11:46,41-57.90N,142-49.83E,121,16.916,33.342
708,2023/10/16,11:47,41-57.73N,142-50.20E,121,16.891,33.283
709,2023/10/16,11:48,41-57.55N,142-50.60E,120,16.883,33.2439
710,2023/10/16,11:49,41-57.36N,142-51.01E,121,16.899,33.2406
711,2023/10/16,11:50,41-57.19N,142-51.40E,121,16.925,33.2505
712,2023/10/16,11:51,41-57.00N,142-51.82E,120,16.902,33.2644
713,2023/10/16,11:52,41-56.84N,142-52.20E,120,16.837,33.2704
714,2023/10/16,11:53,41-56.66N,142-52.61E,119,16.771,33.2642
715,2023/10/16,11:54,41-56.49N,142-53.01E,119,16.704,33.2598
716,2023/10/16,11:55,41-56.32N,142-53.41E,120,16.713,33.2664
717,2023/10/16,11:56,41-56.15N,142-53.81E,119,16.746,33.2696
718,2023/10/16,11:57,41-55.98N,142-54.21E,119,16.768,33.2783
719,2023/10/16,11:58,41-55.82N,142-54.59E,119,16.816,33.2815
720,2023/10/16,11:59,41-55.65N,142-54.99E,119,16.847,33.279
721,2023/10/16,12:00,41-55.48N,142-55.39E,119,16.861,33.2791
722,2023/10/16,12:01,41-55.30N,142-55.78E,120,16.873,33.2815
723,2023/10/16,12:02,41-55.13N,142-56.18E,120,16.838,33.284
724,2023/10/16,12:03,41-54.96N,142-56.59E,119,16.704,33.2922
725,2023/10/16,12:04,41-54.78N,142-57.00E,119,16.603,33.2874
726,2023/10/16,12:05,41-54.61N,142-57.41E,119,16.545,33.2678
727,2023/10/16,12:06,41-54.43N,142-57.81E,120,16.505,33.2485
728,2023/10/16,12:07,41-54.26N,142-58.21E,120,16.451,33.239
729,2023/10/16,12:08,41-54.08N,142-58.61E,120,16.437,33.2398
730,2023/10/16,12:09,41-53.91N,142-59.02E,119,16.325,33.2423
731,2023/10/16,12:10,41-53.75N,142-59.41E,119,16.108,33.2492
732,2023/10/16,12:11,41-53.57N,142-59.81E,120,15.868,33.2369
733,2023/10/16,12:12,41-53.40N,143-00.21E,120,15.483,33.2209
734,2023/10/16,12:13,41-53.23N,143-00.61E,119,15.063,33.1663
735,2023/10/16,12:14,41-53.05N,143-01.04E,119,15.017,33.0968
736,2023/10/16,12:15,41-52.90N,143-01.41E,119,15.148,33.0536
737,2023/10/16,12:16,41-52.73N,143-01.81E,119,15.144,33.0534
738,2023/10/16,12:17,41-52.55N,143-02.22E,120,15.073,33.062
739,2023/10/16,12:18,41-52.39N,143-02.60E,119,15.002,33.0292
740,2023/10/16,12:19,41-52.21N,143-03.00E,120,14.976,32.9911
741,2023/10/16,12:20,41-52.04N,143-03.39E,120,14.988,32.9623
742,2023/10/16,12:21,41-51.87N,143-03.78E,120,15.033,32.9418
743,2023/10/16,12:22,41-51.70N,143-04.18E,119,15.058,32.9371
744,2023/10/16,12:23,41-51.52N,143-04.59E,119,15.088,32.9424
745,2023/10/16,12:24,41-51.34N,143-05.00E,120,15.185,32.9459
746,2023/10/16,12:25,41-51.16N,143-05.42E,121,15.576,32.9602
747,2023/10/16,12:26,41-50.99N,143-05.80E,121,15.752,33.0327
748,2023/10/16,12:27,41-50.81N,143-06.20E,121,15.883,33.0745
749,2023/10/16,12:28,41-50.63N,143-06.60E,121,16.085,33.0906
750,2023/10/16,12:29,41-50.44N,143-07.00E,122,16.074,33.1166
751,2023/10/16,12:30,41-50.26N,143-07.39E,121,16.033,33.163
752,2023/10/16,12:31,41-50.07N,143-07.82E,119,16.028,33.1708
753,2023/10/16,12:32,41-49.96N,143-08.26E,104,15.996,33.1819
754,2023/10/16,12:33,41-49.90N,143-08.71E,100,15.912,33.1856
755,2023/10/16,12:34,41-49.84N,143-09.16E,99,15.913,33.1773
756,2023/10/16,12:35,41-49.79N,143-09.59E,100,15.725,33.165
757,2023/10/16,12:36,41-49.72N,143-10.03E,101,15.651,33.1433
758,2023/10/16,12:37,41-49.65N,143-10.48E,101,15.612,33.1118
759,2023/10/16,12:38,41-49.58N,143-10.91E,102,15.582,33.0734
760,2023/10/16,12:39,41-49.51N,143-11.34E,103,15.56,33.0542
761,2023/10/16,12:40,41-49.44N,143-11.77E,102,15.547,33.0406
762,2023/10/16,12:41,41-49.37N,143-12.21E,102,15.503,33.0349
763,2023/10/16,12:42,41-49.29N,143-12.66E,102,15.439,33.0439
764,2023/10/16,12:43,41-49.22N,143-13.08E,101,15.384,33.0595
765,2023/10/16,12:44,41-49.15N,143-13.52E,103,15.344,33.0687
766,2023/10/16,12:45,41-49.10N,143-13.94E,95,15.317,33.0809
767,2023/10/16,12:46,41-49.16N,143-14.35E,73,15.326,33.087
768,2023/10/16,12:47,41-49.30N,143-14.72E,63,15.318,33.0932
769,2023/10/16,12:48,41-49.45N,143-15.07E,59,15.32,33.0988
770,2023/10/16,12:49,41-49.61N,143-15.43E,60,15.304,33.103
771,2023/10/16,12:50,41-49.75N,143-15.81E,63,15.277,33.1086
772,2023/10/16,12:51,41-49.89N,143-16.16E,61,15.279,33.1212
773,2023/10/16,12:52,41-50.02N,143-16.55E,64,15.241,33.1319
774,2023/10/16,12:53,41-50.17N,143-16.91E,62,15.238,33.1327
775,2023/10/16,12:54,41-50.30N,143-17.30E,64,15.264,33.1283
776,2023/10/16,12:55,41-50.45N,143-17.68E,60,15.323,33.1284
777,2023/10/16,12:56,41-50.61N,143-17.95E,50,15.38,33.1267
778,2023/10/16,12:57,41-50.82N,143-18.27E,48,15.453,33.1291
779,2023/10/16,12:58,41-51.02N,143-18.57E,46,15.441,33.1379
780,2023/10/16,12:59,41-51.25N,143-18.85E,40,15.456,33.1415
781,2023/10/16,13:00,41-51.49N,143-19.11E,37,15.454,33.1371
782,2023/10/16,13:01,41-51.72N,143-19.38E,41,15.485,33.1246
783,2023/10/16,13:02,41-51.97N,143-19.65E,37,15.574,33.0947
784,2023/10/16,13:03,41-52.22N,143-19.90E,38,15.701,33.058
785,2023/10/16,13:04,41-52.46N,143-20.15E,36,15.816,33.0093
786,2023/10/16,13:05,41-52.74N,143-20.41E,35,15.858,32.9497
787,2023/10/16,13:06,41-53.01N,143-20.68E,36,15.861,32.8885
788,2023/10/16,13:07,41-53.23N,143-20.89E,33,15.784,32.8723
789,2023/10/16,13:08,41-53.49N,143-21.13E,35,15.651,32.8924
790,2023/10/16,13:09,41-53.80N,143-21.40E,33,15.521,32.9148
791,2023/10/16,13:10,41-54.04N,143-21.63E,34,15.514,32.9319
792,2023/10/16,13:11,41-54.30N,143-21.89E,35,15.5,32.9683
793,2023/10/16,13:12,41-54.57N,143-22.13E,32,15.509,32.9921
794,2023/10/16,13:13,41-54.83N,143-22.36E,32,15.525,33.0165
795,2023/10/16,13:14,41-55.12N,143-22.58E,30,15.564,33.0098
796,2023/10/16,13:15,41-55.37N,143-22.79E,32,15.593,33.017
797,2023/10/16,13:16,41-55.64N,143-23.03E,33,15.627,33.0333
798,2023/10/16,13:17,41-55.92N,143-23.26E,31,15.686,33.0386
799,2023/10/16,13:18,41-56.19N,143-23.47E,30,15.699,33.0178
800,2023/10/16,13:19,41-56.46N,143-23.71E,31,15.729,32.9967
801,2023/10/16,13:20,41-56.74N,143-23.92E,30,15.761,32.9864
802,2023/10/16,13:21,41-57.00N,143-24.17E,35,15.734,32.9679
803,2023/10/16,13:22,41-57.27N,143-24.41E,32,15.745,32.9733
804,2023/10/16,13:23,41-57.53N,143-24.66E,39,15.757,33.0098
805,2023/10/16,13:24,41-57.79N,143-24.96E,40,15.784,33.0529
806,2023/10/16,13:25,41-58.02N,143-25.21E,37,15.835,33.0897
807,2023/10/16,13:26,41-58.28N,143-25.45E,35,15.851,33.1185
808,2023/10/16,13:27,41-58.56N,143-25.70E,33,15.885,33.1333
809,2023/10/16,13:28,41-58.83N,143-25.92E,32,15.937,33.1431
810,2023/10/16,13:29,41-59.11N,143-26.17E,33,15.959,33.1484
811,2023/10/16,13:30,41-59.38N,143-26.40E,33,16.004,33.1535
812,2023/10/16,13:31,41-59.63N,143-26.62E,33,16.025,33.1535
813,2023/10/16,13:32,41-59.89N,143-26.86E,34,16.044,33.1555
814,2023/10/16,13:33,42-00.15N,143-27.10E,34,16.053,33.1567
815,2023/10/16,13:34,42-00.42N,143-27.36E,34,16.07,33.1563
816,2023/10/16,13:35,42-00.69N,143-27.60E,34,16.084,33.1504
817,2023/10/16,13:36,42-00.96N,143-27.85E,34,16.095,33.145
818,2023/10/16,13:37,42-01.23N,143-28.10E,34,16.1,33.1451
819,2023/10/16,13:38,42-01.51N,143-28.36E,35,16.111,33.145
820,2023/10/16,13:39,42-01.77N,143-28.60E,34,16.114,33.1432
821,2023/10/16,13:40,42-02.04N,143-28.85E,34,16.073,33.1543
822,2023/10/16,13:41,42-02.30N,143-29.09E,33,16.057,33.1638
823,2023/10/16,13:42,42-02.57N,143-29.33E,34,16.043,33.1713
824,2023/10/16,13:43,42-02.83N,143-29.56E,33,16.019,33.1727
825,2023/10/16,13:44,42-03.11N,143-29.81E,32,15.974,33.1772
826,2023/10/16,13:45,42-03.40N,143-30.06E,33,15.932,33.1628
827,2023/10/16,13:46,42-03.66N,143-30.31E,34,15.915,33.1377
828,2023/10/16,13:47,42-03.93N,143-30.54E,33,15.896,33.1102
829,2023/10/16,13:48,42-04.19N,143-30.78E,34,15.871,33.095
830,2023/10/16,13:49,42-04.45N,143-31.03E,35,15.825,33.0788
831,2023/10/16,13:50,42-04.67N,143-31.24E,35,15.785,33.0632
832,2023/10/16,13:51,42-04.93N,143-31.49E,36,15.757,33.0448
833,2023/10/16,13:52,42-05.18N,143-31.74E,36,15.72,33.04
834,2023/10/16,13:53,42-05.44N,143-31.99E,37,15.692,33.0394
835,2023/10/16,13:54,42-05.69N,143-32.26E,37,15.694,33.0358
836,2023/10/16,13:55,42-05.95N,143-32.52E,37,15.707,33.0272
837,2023/10/16,13:56,42-06.20N,143-32.78E,37,15.73,33.0264
838,2023/10/16,13:57,42-06.47N,143-33.06E,38,15.778,33.0224
839,2023/10/16,13:58,42-06.71N,143-33.31E,37,15.797,33.0241
840,2023/10/16,13:59,42-06.97N,143-33.57E,36,15.833,33.0216
841,2023/10/16,14:00,42-07.23N,143-33.84E,37,15.858,33.021
842,2023/10/16,14:01,42-07.47N,143-34.09E,37,15.849,33.0204
843,2023/10/16,14:02,42-07.73N,143-34.36E,37,15.872,33.0162
844,2023/10/16,14:03,42-07.98N,143-34.62E,36,15.914,33.0093
845,2023/10/16,14:04,42-08.24N,143-34.88E,36,15.921,33.0062
846,2023/10/16,14:05,42-08.50N,143-35.14E,36,15.924,33.0022
847,2023/10/16,14:06,42-08.74N,143-35.39E,36,15.907,32.9929
848,2023/10/16,14:07,42-09.01N,143-35.65E,36,15.866,32.98
849,2023/10/16,14:08,42-09.26N,143-35.90E,36,15.822,32.9614
850,2023/10/16,14:09,42-09.51N,143-36.14E,35,15.794,32.9393
851,2023/10/16,14:10,42-09.77N,143-36.40E,36,15.684,32.9193
852,2023/10/16,14:11,42-10.02N,143-36.64E,35,15.581,32.918
853,2023/10/16,14:12,42-10.28N,143-36.90E,36,15.478,32.9106
854,2023/10/16,14:13,42-10.53N,143-37.14E,36,15.393,32.885
855,2023/10/16,14:14,42-10.79N,143-37.40E,36,15.314,32.8593
856,2023/10/16,14:15,42-11.05N,143-37.66E,36,15.193,32.8274
857,2023/10/16,14:16,42-11.32N,143-37.92E,36,15.148,32.8044
858,2023/10/16,14:17,42-11.58N,143-38.17E,35,15.151,32.7957
859,2023/10/16,14:18,42-11.85N,143-38.42E,35,15.151,32.8121
860,2023/10/16,14:19,42-12.12N,143-38.69E,35,15.08,32.8497
861,2023/10/16,14:20,42-12.39N,143-38.95E,35,14.979,32.8761
862,2023/10/16,14:21,42-12.66N,143-39.20E,34,14.993,32.8746
863,2023/10/16,14:22,42-12.95N,143-39.46E,34,15.045,32.8709
864,2023/10/16,14:23,42-13.21N,143-39.70E,34,15.129,32.879
865,2023/10/16,14:24,42-13.49N,143-39.94E,33,15.276,32.8998
866,2023/10/16,14:25,42-13.79N,143-40.21E,32,14.922,32.9314
867,2023/10/16,14:26,42-14.05N,143-40.43E,32,14.788,32.9374
868,2023/10/16,14:27,42-14.35N,143-40.68E,31,14.776,32.8536
869,2023/10/16,14:28,42-14.64N,143-40.91E,30,14.685,32.8037
870,2023/10/16,14:29,42-14.92N,143-41.14E,30,14.622,32.7864
871,2023/10/16,14:30,42-15.22N,143-41.37E,30,14.667,32.7827
872,2023/10/16,14:31,42-15.51N,143-41.59E,29,14.714,32.7844
873,2023/10/16,14:32,42-15.81N,143-41.83E,29,14.679,32.7751
874,2023/10/16,14:33,42-16.12N,143-42.07E,29,14.598,32.7514
875,2023/10/16,14:34,42-16.40N,143-42.28E,29,14.591,32.7146
876,2023/10/16,14:35,42-16.69N,143-42.51E,29,14.587,32.6722
877,2023/10/16,14:36,42-16.98N,143-42.73E,29,14.61,32.6497
878,2023/10/16,14:37,42-17.28N,143-42.97E,30,14.647,32.6486
879,2023/10/16,14:38,42-17.56N,143-43.19E,29,14.771,32.6626
880,2023/10/16,14:39,42-17.86N,143-43.42E,29,14.959,32.7056
881,2023/10/16,14:40,42-18.16N,143-43.65E,30,15.187,32.7683
882,2023/10/16,14:41,42-18.45N,143-43.88E,31,15.179,32.8712
883,2023/10/16,14:42,42-18.74N,143-44.12E,31,14.91,32.9406
884,2023/10/16,14:43,42-19.04N,143-44.37E,31,14.83,32.9372
885,2023/10/16,14:44,42-19.32N,143-44.60E,31,14.808,32.8939
886,2023/10/16,14:45,42-19.61N,143-44.84E,31,14.829,32.8808
887,2023/10/16,14:46,42-19.90N,143-45.08E,31,14.873,32.8903
888,2023/10/16,14:47,42-20.20N,143-45.33E,31,15.089,32.9108
889,2023/10/16,14:48,42-20.48N,143-45.57E,31,15.34,32.9488
890,2023/10/16,14:49,42-20.77N,143-45.81E,31,15.508,33.0227
891,2023/10/16,14:50,42-21.07N,143-46.05E,31,15.558,33.0607
892,2023/10/16,14:51,42-21.36N,143-46.30E,31,15.617,33.0813
893,2023/10/16,14:52,42-21.66N,143-46.55E,32,15.688,33.1206
894,2023/10/16,14:53,42-21.94N,143-46.79E,32,15.757,33.15
895,2023/10/16,14:54,42-22.23N,143-47.04E,32,15.803,33.1854
896,2023/10/16,14:55,42-22.52N,143-47.28E,32,15.832,33.2022
897,2023/10/16,14:56,42-22.81N,143-47.53E,32,15.841,33.2063
898,2023/10/16,14:57,42-23.11N,143-47.78E,32,15.874,33.2128
899,2023/10/16,14:58,42-23.40N,143-48.03E,32,15.896,33.2169
900,2023/10/16,14:59,42-23.68N,143-48.27E,32,15.922,33.2169
901,2023/10/16,15:00,42-23.98N,143-48.53E,31,15.938,33.2101
902,2023/10/16,15:01,42-24.28N,143-48.78E,32,15.95,33.2053
903,2023/10/16,15:02,42-24.58N,143-49.04E,32,15.963,33.2026